| time (UTC) | temp F | wind direction | speed MPH | gust MPH | rain 1hr in | rain 24hr in | rain mn in | humidity % | barometer mb |
| 20260901064030 | 68 | 198 | 0.0 | 2.0 | 0.00 | 0.00 | 0.00 | 93 | 1016.7 |
| 20260901063529 | 68 | 198 | 0.0 | 2.0 | 0.00 | 0.00 | 0.00 | 93 | 1016.6 |
| 20260901063033 | 68 | 198 | 0.0 | 0.0 | 0.00 | 0.00 | 0.00 | 93 | 1016.7 |
| 20260901062532 | 68 | 198 | 0.0 | 0.0 | 0.00 | 0.00 | 0.00 | 93 | 1016.6 |
| 20260901062029 | 68 | 198 | 0.0 | 0.0 | 0.00 | 0.00 | 0.00 | 93 | 1016.8 |
| 20260901061527 | 68 | 198 | 0.0 | 0.0 | 0.00 | 0.00 | 0.00 | 93 | 1016.8 |
| 20260901061028 | 68 | 198 | 0.0 | 2.0 | 0.00 | 0.00 | 0.00 | 93 | 1016.9 |
| 20260901060527 | 68 | 198 | 0.0 | 2.0 | 0.00 | 0.00 | 0.00 | 93 | 1017.0 |
| 20260901060034 | 68 | 198 | 0.0 | 0.0 | 0.00 | 0.00 | 0.00 | 93 | 1017.1 |
| 20260901055525 | 68 | 198 | 0.0 | 0.0 | 0.00 | 0.00 | 0.00 | 93 | 1017.1 |
| 20260901055025 | 68 | 198 | 0.0 | 0.0 | 0.00 | 0.00 | 0.00 | 93 | 1017.1 |
| 20260901054526 | 68 | 198 | 0.0 | 0.0 | 0.00 | 0.00 | 0.00 | 93 | 1017.1 |
| 20260901054025 | 68 | 198 | 0.0 | 0.0 | 0.00 | 0.00 | 0.00 | 93 | 1017.1 |
| 20260901053524 | 68 | 198 | 0.0 | 0.0 | 0.00 | 0.00 | 0.00 | 93 | 1017.3 |
| 20260901053024 | 68 | 198 | 0.0 | 0.0 | 0.00 | 0.00 | 0.00 | 93 | 1017.3 |
| 20260901052523 | 68 | 198 | 0.0 | 0.0 | 0.00 | 0.00 | 0.00 | 93 | 1017.2 |
| 20260901052023 | 68 | 198 | 0.0 | 0.0 | 0.00 | 0.00 | 0.00 | 93 | 1017.3 |
| 20260901051523 | 68 | 198 | 0.0 | 0.0 | 0.00 | 0.00 | 0.00 | 93 | 1017.3 |
| 20260901051022 | 68 | 198 | 0.0 | 0.0 | 0.00 | 0.00 | 0.00 | 93 | 1017.4 |
| 20260901050526 | 68 | 198 | 0.0 | 0.0 | 0.00 | 0.00 | 0.00 | 93 | 1017.5 |
| 20260901050022 | 68 | 198 | 0.0 | 0.0 | 0.00 | 0.00 | 0.00 | 93 | 1017.3 |
| 20260901045521 | 68 | 198 | 0.0 | 1.0 | 0.00 | 0.00 | 0.00 | 93 | 1017.5 |
| 20260901045020 | 68 | 198 | 0.0 | 1.0 | 0.00 | 0.00 | 0.00 | 93 | 1017.6 |
| 20260901044520 | 68 | 198 | 0.0 | 0.0 | 0.00 | 0.00 | 0.00 | 93 | 1017.7 |
| 20260901044021 | 68 | 198 | 0.0 | 0.0 | 0.00 | 0.00 | 0.00 | 93 | 1017.6 |
| 20260901043520 | 68 | 198 | 0.0 | 0.0 | 0.00 | 0.00 | 0.00 | 93 | 1017.6 |
| 20260901043019 | 68 | 198 | 0.0 | 1.0 | 0.00 | 0.00 | 0.00 | 93 | 1017.5 |
| 20260901042522 | 68 | 198 | 0.0 | 1.0 | 0.00 | 0.00 | 0.00 | 93 | 1017.5 |
| 20260901042018 | 68 | 198 | 0.0 | 0.0 | 0.00 | 0.00 | 0.00 | 93 | 1017.4 |
| 20260901041520 | 68 | 198 | 0.0 | 3.0 | 0.00 | 0.00 | 0.00 | 93 | 1017.5 |
| 20260901041018 | 68 | 198 | 0.0 | 3.0 | 0.00 | 0.00 | 0.00 | 93 | 1017.5 |
| 20260901040519 | 68 | 198 | 0.0 | 2.0 | 0.00 | 0.00 | 0.00 | 93 | 1017.6 |
| 20260901040018 | 68 | 198 | 0.0 | 2.0 | 0.00 | 0.00 | 0.00 | 93 | 1017.7 |
| 20260901035515 | 68 | 198 | 0.0 | 3.0 | 0.00 | 0.00 | 0.00 | 93 | 1017.7 |
| 20260901035016 | 68 | 198 | 1.0 | 3.0 | 0.00 | 0.00 | 0.00 | 93 | 1017.8 |
| 20260901034515 | 68 | 198 | 0.0 | 3.0 | 0.00 | 0.00 | 0.00 | 93 | 1017.7 |
| 20260901034014 | 68 | 198 | 0.0 | 3.0 | 0.00 | 0.00 | 0.00 | 93 | 1017.7 |
| 20260901033514 | 68 | 198 | 0.0 | 0.0 | 0.00 | 0.00 | 0.00 | 92 | 1017.9 |
| 20260901033029 | 68 | 198 | 0.0 | 0.0 | 0.00 | 0.00 | 0.00 | 92 | 1017.9 |
| 20260901032515 | 68 | 198 | 0.0 | 0.0 | 0.00 | 0.00 | 0.00 | 92 | 1017.9 |
| 20260901032015 | 68 | 198 | 0.0 | 0.0 | 0.00 | 0.00 | 0.00 | 92 | 1018.0 |
| 20260901031521 | 68 | 198 | 0.0 | 0.0 | 0.00 | 0.00 | 0.00 | 92 | 1017.9 |
| 20260901031013 | 68 | 198 | 0.0 | 2.0 | 0.00 | 0.00 | 0.00 | 92 | 1017.9 |
| 20260901030513 | 68 | 198 | 0.0 | 2.0 | 0.00 | 0.00 | 0.00 | 92 | 1017.8 |
| 20260901030013 | 68 | 198 | 0.0 | 2.0 | 0.00 | 0.00 | 0.00 | 92 | 1017.9 |
| 20260901025512 | 68 | 198 | 0.0 | 2.0 | 0.00 | 0.00 | 0.00 | 92 | 1017.9 |
| 20260901025012 | 68 | 198 | 0.0 | 3.0 | 0.00 | 0.00 | 0.00 | 92 | 1017.9 |
| 20260901024512 | 68 | 198 | 1.0 | 3.0 | 0.00 | 0.00 | 0.00 | 92 | 1018.0 |
| 20260901024011 | 68 | 198 | 1.0 | 4.0 | 0.00 | 0.00 | 0.00 | 92 | 1018.0 |
| 20260901023511 | 68 | 197 | 2.0 | 4.0 | 0.00 | 0.00 | 0.00 | 92 | 1018.1 |
| 20260901023010 | 68 | 203 | 0.0 | 4.0 | 0.00 | 0.00 | 0.00 | 92 | 1018.1 |
| 20260901022510 | 68 | 203 | 1.0 | 4.0 | 0.00 | 0.00 | 0.00 | 92 | 1018.1 |
| 20260901022012 | 68 | 203 | 0.0 | 3.0 | 0.00 | 0.00 | 0.00 | 91 | 1018.2 |
| 20260901021512 | 68 | 203 | 1.0 | 3.0 | 0.00 | 0.00 | 0.00 | 91 | 1018.2 |
| 20260901021112 | 68 | 203 | 0.0 | 4.0 | 0.00 | 0.00 | 0.00 | 91 | 1018.2 |
| 20260901020509 | 68 | 203 | 2.0 | 4.0 | 0.00 | 0.00 | 0.00 | 91 | 1018.2 |
| 20260901020010 | 68 | 203 | 1.0 | 3.0 | 0.00 | 0.00 | 0.00 | 91 | 1018.3 |
| 20260901015509 | 68 | 203 | 0.0 | 2.0 | 0.00 | 0.00 | 0.00 | 91 | 1018.3 |
| 20260901015008 | 68 | 203 | 0.0 | 2.0 | 0.00 | 0.00 | 0.00 | 90 | 1018.2 |
| 20260901014510 | 68 | 203 | 0.0 | 2.0 | 0.00 | 0.00 | 0.00 | 90 | 1018.2 |
| 20260901014008 | 68 | 203 | 0.0 | 2.0 | 0.00 | 0.00 | 0.00 | 90 | 1018.1 |
| 20260901013508 | 68 | 203 | 0.0 | 3.0 | 0.00 | 0.00 | 0.00 | 90 | 1018.1 |
| 20260901013008 | 68 | 203 | 0.0 | 3.0 | 0.00 | 0.00 | 0.00 | 90 | 1018.1 |
| 20260901012507 | 68 | 203 | 0.0 | 2.0 | 0.00 | 0.00 | 0.00 | 90 | 1018.2 |
| 20260901012007 | 69 | 203 | 0.0 | 0.0 | 0.00 | 0.00 | 0.00 | 90 | 1018.2 |
| 20260901011511 | 69 | 203 | 0.0 | 0.0 | 0.00 | 0.00 | 0.00 | 90 | 1018.2 |
| 20260901011009 | 69 | 203 | 0.0 | 0.0 | 0.00 | 0.00 | 0.00 | 90 | 1018.2 |
| 20260901010507 | 69 | 203 | 0.0 | 0.0 | 0.00 | 0.00 | 0.00 | 90 | 1018.3 |
| 20260901010020 | 69 | 203 | 0.0 | 0.0 | 0.00 | 0.00 | 0.00 | 90 | 1018.3 |
| 20260901005506 | 69 | 203 | 0.0 | 0.0 | 0.00 | 0.00 | 0.00 | 89 | 1018.2 |
| 20260901005007 | 69 | 203 | 0.0 | 0.0 | 0.00 | 0.00 | 0.00 | 89 | 1018.3 |
| 20260901004508 | 69 | 203 | 0.0 | 0.0 | 0.00 | 0.00 | 0.00 | 89 | 1018.4 |
| 20260901004005 | 69 | 203 | 0.0 | 0.0 | 0.00 | 0.00 | 0.00 | 89 | 1018.3 |
| 20260901003509 | 69 | 203 | 0.0 | 0.0 | 0.00 | 0.00 | 0.00 | 89 | 1018.4 |
| 20260901003006 | 69 | 203 | 0.0 | 0.0 | 0.00 | 0.00 | 0.00 | 89 | 1018.3 |
| 20260901002507 | 69 | 203 | 0.0 | 0.0 | 0.00 | 0.00 | 0.00 | 89 | 1018.4 |
| 20260901002006 | 69 | 203 | 0.0 | 1.0 | 0.00 | 0.00 | 0.00 | 89 | 1018.4 |
| 20260901001506 | 69 | 203 | 0.0 | 2.0 | 0.00 | 0.00 | 0.00 | 89 | 1018.3 |
| 20260901001005 | 70 | 203 | 0.0 | 3.0 | 0.00 | 0.00 | 0.00 | 88 | 1018.2 |
| 20260901000505 | 70 | 203 | 1.0 | 3.0 | 0.00 | 0.00 | 0.00 | 88 | 1018.3 |
| 20260901000005 | 70 | 203 | 0.0 | 1.0 | 0.00 | 0.00 | 0.00 | 88 | 1018.2 |
| 20260831235508 | 70 | 203 | 0.0 | 1.0 | 0.00 | 0.00 | 0.00 | 88 | 1018.2 |
| 20260831235004 | 70 | 203 | 0.0 | 2.0 | 0.00 | 0.00 | 0.00 | 88 | 1018.2 |
| 20260831234504 | 70 | 203 | 0.0 | 2.0 | 0.00 | 0.00 | 0.00 | 88 | 1018.2 |
| 20260831234004 | 70 | 203 | 0.0 | 1.0 | 0.00 | 0.00 | 0.00 | 88 | 1018.2 |
| 20260831233503 | 70 | 203 | 0.0 | 2.0 | 0.00 | 0.00 | 0.00 | 88 | 1018.1 |
| 20260831233004 | 70 | 203 | 0.0 | 3.0 | 0.00 | 0.00 | 0.00 | 88 | 1018.0 |
| 20260831232503 | 70 | 203 | 0.0 | 3.0 | 0.00 | 0.00 | 0.00 | 88 | 1018.0 |
| 20260831232004 | 70 | 203 | 0.0 | 1.0 | 0.00 | 0.00 | 0.00 | 88 | 1018.1 |
| 20260831231503 | 70 | 203 | 0.0 | 1.0 | 0.00 | 0.00 | 0.00 | 88 | 1018.1 |
| 20260831231003 | 71 | 203 | 0.0 | 3.0 | 0.00 | 0.00 | 0.00 | 88 | 1018.2 |
| 20260831230502 | 71 | 203 | 0.0 | 3.0 | 0.00 | 0.00 | 0.00 | 87 | 1018.3 |
| 20260831230000 | 71 | 203 | 0.0 | 3.0 | 0.00 | 0.00 | 0.00 | 87 | 1018.3 |
| 20260831225600 | 71 | 203 | 1.0 | 3.0 | 0.00 | 0.00 | 0.00 | 87 | 1018.5 |
| 20260831225100 | 71 | 203 | 0.0 | 3.0 | 0.00 | 0.00 | 0.00 | 87 | 1018.5 |
| 20260831224600 | 71 | 203 | 1.0 | 3.0 | 0.00 | 0.00 | 0.00 | 87 | 1018.4 |
| 20260831224100 | 71 | 203 | 0.0 | 3.0 | 0.00 | 0.00 | 0.00 | 87 | 1018.4 |
| 20260831223601 | 71 | 203 | 1.0 | 3.0 | 0.00 | 0.00 | 0.00 | 86 | 1018.5 |
| 20260831223108 | 71 | 203 | 1.0 | 3.0 | 0.00 | 0.00 | 0.00 | 87 | 1018.5 |
| 20260831222559 | 71 | 203 | 0.0 | 2.0 | 0.00 | 0.00 | 0.00 | 86 | 1018.5 |
| 20260831222058 | 71 | 203 | 0.0 | 3.0 | 0.00 | 0.00 | 0.00 | 86 | 1018.6 |
| 20260831221603 | 71 | 203 | 0.0 | 3.0 | 0.00 | 0.00 | 0.00 | 86 | 1018.6 |
| 20260831221058 | 71 | 203 | 0.0 | 0.0 | 0.00 | 0.00 | 0.00 | 85 | 1018.6 |
| 20260831220558 | 71 | 203 | 0.0 | 2.0 | 0.00 | 0.00 | 0.00 | 85 | 1018.6 |
| 20260831220057 | 72 | 203 | 0.0 | 2.0 | 0.00 | 0.00 | 0.00 | 85 | 1018.6 |
| 20260831215555 | 72 | 203 | 0.0 | 2.0 | 0.00 | 0.00 | 0.00 | 85 | 1018.7 |
| 20260831215056 | 72 | 203 | 0.0 | 2.0 | 0.00 | 0.00 | 0.00 | 85 | 1018.7 |
| 20260831214556 | 72 | 203 | 0.0 | 3.0 | 0.00 | 0.00 | 0.00 | 85 | 1018.6 |
| 20260831214054 | 72 | 203 | 0.0 | 3.0 | 0.00 | 0.00 | 0.00 | 85 | 1018.6 |
| 20260831213554 | 72 | 203 | 0.0 | 3.0 | 0.00 | 0.00 | 0.00 | 85 | 1018.6 |
| 20260831213056 | 72 | 203 | 0.0 | 3.0 | 0.00 | 0.00 | 0.00 | 84 | 1018.7 |
| 20260831212553 | 72 | 203 | 0.0 | 2.0 | 0.00 | 0.00 | 0.00 | 84 | 1018.8 |
| 20260831212053 | 72 | 203 | 0.0 | 2.0 | 0.00 | 0.00 | 0.00 | 84 | 1018.7 |
| 20260831211604 | 73 | 203 | 0.0 | 2.0 | 0.00 | 0.00 | 0.00 | 84 | 1018.7 |
| 20260831211051 | 73 | 203 | 0.0 | 2.0 | 0.00 | 0.00 | 0.00 | 84 | 1018.6 |
| 20260831210552 | 73 | 203 | 0.0 | 2.0 | 0.00 | 0.00 | 0.00 | 84 | 1018.6 |
| 20260831210052 | 73 | 203 | 0.0 | 2.0 | 0.00 | 0.00 | 0.00 | 84 | 1018.6 |
| 20260831205550 | 73 | 203 | 0.0 | 2.0 | 0.00 | 0.00 | 0.00 | 84 | 1018.6 |
| 20260831205050 | 73 | 203 | 0.0 | 2.0 | 0.00 | 0.00 | 0.00 | 83 | 1018.6 |
| 20260831204550 | 73 | 203 | 0.0 | 3.0 | 0.00 | 0.00 | 0.00 | 83 | 1018.7 |
| 20260831204051 | 73 | 203 | 1.0 | 3.0 | 0.00 | 0.00 | 0.00 | 83 | 1018.7 |
| 20260831203550 | 74 | 203 | 1.0 | 2.0 | 0.00 | 0.00 | 0.00 | 83 | 1018.7 |
| 20260831203054 | 74 | 203 | 0.0 | 1.0 | 0.00 | 0.00 | 0.00 | 83 | 1018.6 |
| 20260831202548 | 74 | 203 | 0.0 | 2.0 | 0.00 | 0.00 | 0.00 | 83 | 1018.6 |
| 20260831202048 | 74 | 203 | 0.0 | 2.0 | 0.00 | 0.00 | 0.00 | 83 | 1018.7 |
| 20260831201557 | 74 | 203 | 0.0 | 3.0 | 0.00 | 0.00 | 0.00 | 82 | 1018.7 |
| 20260831201048 | 74 | 203 | 1.0 | 3.0 | 0.00 | 0.00 | 0.00 | 83 | 1018.7 |
| 20260831200547 | 74 | 203 | 0.0 | 2.0 | 0.00 | 0.00 | 0.00 | 82 | 1018.8 |
| 20260831200046 | 74 | 203 | 0.0 | 4.0 | 0.00 | 0.00 | 0.00 | 82 | 1018.9 |
| 20260831195548 | 74 | 202 | 0.0 | 4.0 | 0.00 | 0.00 | 0.00 | 82 | 1018.9 |
| 20260831195045 | 74 | 202 | 0.0 | 2.0 | 0.00 | 0.00 | 0.00 | 82 | 1018.9 |
| 20260831194628 | 74 | 202 | 0.0 | 3.0 | 0.00 | 0.00 | 0.00 | 82 | 1018.9 |
| 20260831194045 | 74 | 202 | 1.0 | 3.0 | 0.00 | 0.00 | 0.00 | 81 | 1018.9 |
| 20260831193545 | 74 | 202 | 0.0 | 3.0 | 0.00 | 0.00 | 0.00 | 80 | 1019.0 |
| 20260831193044 | 74 | 202 | 0.0 | 3.0 | 0.00 | 0.00 | 0.00 | 78 | 1019.0 |
| 20260831192543 | 74 | 202 | 0.0 | 4.0 | 0.00 | 0.00 | 0.00 | 78 | 1019.1 |
| 20260831192042 | 74 | 202 | 1.0 | 4.0 | 0.00 | 0.00 | 0.00 | 77 | 1019.2 |
| 20260831191542 | 75 | 202 | 0.0 | 3.0 | 0.00 | 0.00 | 0.00 | 77 | 1019.2 |
| 20260831191042 | 75 | 202 | 0.0 | 2.0 | 0.00 | 0.00 | 0.00 | 77 | 1019.3 |
| 20260831190546 | 75 | 202 | 0.0 | 4.0 | 0.00 | 0.00 | 0.00 | 76 | 1019.3 |
| 20260831190047 | 75 | 202 | 1.0 | 4.0 | 0.00 | 0.00 | 0.00 | 75 | 1019.3 |
| 20260831185542 | 75 | 202 | 1.0 | 5.0 | 0.00 | 0.00 | 0.00 | 75 | 1019.4 |
| 20260831185042 | 75 | 201 | 2.0 | 5.0 | 0.00 | 0.00 | 0.00 | 75 | 1019.5 |
| 20260831184552 | 75 | 201 | 1.0 | 5.0 | 0.00 | 0.00 | 0.00 | 75 | 1019.5 |
| 20260831184041 | 75 | 183 | 2.0 | 5.0 | 0.00 | 0.00 | 0.00 | 75 | 1019.5 |
| 20260831183541 | 75 | 202 | 2.0 | 5.0 | 0.00 | 0.00 | 0.00 | 75 | 1019.5 |
| 20260831183041 | 75 | 148 | 1.0 | 5.0 | 0.00 | 0.00 | 0.00 | 76 | 1019.5 |
| 20260831182541 | 75 | 131 | 1.0 | 8.0 | 0.00 | 0.00 | 0.00 | 75 | 1019.5 |
| 20260831182041 | 75 | 182 | 2.0 | 6.0 | 0.00 | 0.00 | 0.00 | 75 | 1019.5 |
| 20260831181547 | 75 | 260 | 2.0 | 6.0 | 0.00 | 0.00 | 0.00 | 74 | 1019.6 |
| 20260831181040 | 75 | 223 | 3.0 | 6.0 | 0.00 | 0.00 | 0.00 | 75 | 1019.5 |
| 20260831180540 | 75 | 207 | 2.0 | 6.0 | 0.00 | 0.00 | 0.00 | 75 | 1019.6 |
| 20260831180041 | 75 | 219 | 1.0 | 4.0 | 0.00 | 0.00 | 0.00 | 75 | 1019.6 |
| 20260831175542 | 75 | 260 | 0.0 | 6.0 | 0.00 | 0.00 | 0.00 | 75 | 1019.7 |
| 20260831175039 | 75 | 252 | 2.0 | 6.0 | 0.00 | 0.00 | 0.00 | 74 | 1019.6 |
| 20260831174543 | 75 | 313 | 1.0 | 4.0 | 0.00 | 0.00 | 0.00 | 75 | 1019.7 |
| 20260831174039 | 75 | 315 | 0.0 | 4.0 | 0.00 | 0.00 | 0.00 | 74 | 1019.8 |
| 20260831173539 | 75 | 315 | 1.0 | 4.0 | 0.00 | 0.00 | 0.00 | 73 | 1020.0 |
| 20260831173038 | 75 | 317 | 2.0 | 4.0 | 0.00 | 0.00 | 0.00 | 73 | 1020.2 |
| 20260831172538 | 75 | 317 | 1.0 | 5.0 | 0.00 | 0.00 | 0.00 | 72 | 1020.3 |
| 20260831172038 | 76 | 319 | 0.0 | 4.0 | 0.00 | 0.00 | 0.00 | 73 | 1020.4 |
| 20260831171544 | 76 | 329 | 0.0 | 4.0 | 0.00 | 0.00 | 0.00 | 71 | 1020.3 |
| 20260831171038 | 76 | 331 | 2.0 | 4.0 | 0.00 | 0.00 | 0.00 | 70 | 1020.5 |
| 20260831170538 | 76 | 162 | 1.0 | 5.0 | 0.00 | 0.00 | 0.00 | 70 | 1020.5 |
| 20260831170039 | 76 | 165 | 1.0 | 5.0 | 0.00 | 0.00 | 0.00 | 71 | 1020.5 |
| 20260831165541 | 76 | 165 | 1.0 | 3.0 | 0.00 | 0.00 | 0.00 | 71 | 1020.3 |
| 20260831165037 | 76 | 165 | 1.0 | 5.0 | 0.00 | 0.00 | 0.00 | 70 | 1020.1 |
| 20260831164536 | 76 | 165 | 2.0 | 5.0 | 0.00 | 0.00 | 0.00 | 71 | 1020.1 |
| 20260831164036 | 76 | 165 | 0.0 | 5.0 | 0.00 | 0.00 | 0.00 | 71 | 1020.3 |
| 20260831163537 | 76 | 165 | 3.0 | 5.0 | 0.00 | 0.00 | 0.00 | 71 | 1020.4 |
| 20260831163039 | 76 | 165 | 0.0 | 5.0 | 0.00 | 0.00 | 0.00 | 70 | 1020.4 |
| 20260831162536 | 76 | 165 | 1.0 | 6.0 | 0.00 | 0.00 | 0.00 | 71 | 1020.5 |
| 20260831162037 | 76 | 165 | 1.0 | 6.0 | 0.00 | 0.00 | 0.00 | 71 | 1020.6 |
| 20260831161537 | 76 | 165 | 1.0 | 2.0 | 0.00 | 0.00 | 0.00 | 71 | 1020.6 |
| 20260831161036 | 76 | 165 | 0.0 | 3.0 | 0.00 | 0.00 | 0.00 | 71 | 1020.6 |
| 20260831160535 | 76 | 165 | 0.0 | 5.0 | 0.00 | 0.00 | 0.00 | 70 | 1020.6 |
| 20260831160038 | 76 | 165 | 1.0 | 5.0 | 0.00 | 0.00 | 0.00 | 71 | 1020.8 |
| 20260831155534 | 76 | 165 | 0.0 | 4.0 | 0.00 | 0.00 | 0.00 | 73 | 1020.6 |
| 20260831155033 | 76 | 165 | 1.0 | 3.0 | 0.00 | 0.00 | 0.00 | 72 | 1020.7 |
| 20260831154535 | 76 | 165 | 0.0 | 6.0 | 0.00 | 0.00 | 0.00 | 71 | 1020.8 |
| 20260831154031 | 76 | 165 | 1.0 | 6.0 | 0.00 | 0.00 | 0.00 | 71 | 1020.9 |
| 20260831153533 | 76 | 107 | 1.0 | 5.0 | 0.00 | 0.00 | 0.00 | 75 | 1020.8 |
| 20260831153036 | 75 | 46 | 1.0 | 3.0 | 0.00 | 0.00 | 0.00 | 75 | 1020.7 |
| 20260831152526 | 75 | 46 | 1.0 | 3.0 | 0.00 | 0.00 | 0.00 | 73 | 1020.7 |
| 20260831152025 | 75 | 46 | 1.0 | 3.0 | 0.00 | 0.00 | 0.00 | 72 | 1020.8 |
| 20260831151523 | 75 | 46 | 0.0 | 3.0 | 0.00 | 0.00 | 0.00 | 74 | 1020.8 |
| 20260831151023 | 75 | 46 | 2.0 | 5.0 | 0.00 | 0.00 | 0.00 | 77 | 1020.8 |
| 20260831150521 | 74 | 65 | 1.0 | 5.0 | 0.00 | 0.00 | 0.00 | 76 | 1020.9 |
| 20260831150020 | 74 | 82 | 1.0 | 5.0 | 0.00 | 0.00 | 0.00 | 78 | 1020.9 |
| 20260831145517 | 73 | 19 | 1.0 | 3.0 | 0.00 | 0.00 | 0.00 | 79 | 1020.9 |
| 20260831145017 | 73 | 20 | 1.0 | 4.0 | 0.00 | 0.00 | 0.00 | 80 | 1020.9 |
| 20260831144516 | 72 | 72 | 0.0 | 4.0 | 0.00 | 0.00 | 0.00 | 81 | 1020.9 |
| 20260831144015 | 72 | 77 | 1.0 | 5.0 | 0.00 | 0.00 | 0.00 | 82 | 1020.9 |
| 20260831143520 | 72 | 76 | 1.0 | 5.0 | 0.00 | 0.00 | 0.00 | 83 | 1020.7 |
| 20260831143013 | 71 | 78 | 2.0 | 5.0 | 0.00 | 0.00 | 0.00 | 83 | 1020.8 |
| 20260831142512 | 71 | 65 | 2.0 | 5.0 | 0.00 | 0.00 | 0.00 | 84 | 1020.8 |
| 20260831142011 | 70 | 63 | 1.0 | 3.0 | 0.00 | 0.00 | 0.00 | 84 | 1020.7 |
| 20260831141509 | 70 | 64 | 0.0 | 3.0 | 0.00 | 0.00 | 0.00 | 85 | 1020.8 |
| 20260831141008 | 70 | 63 | 0.0 | 3.0 | 0.00 | 0.00 | 0.00 | 85 | 1020.7 |
| 20260831140508 | 69 | 63 | 1.0 | 3.0 | 0.00 | 0.00 | 0.00 | 86 | 1020.6 |
| 20260831140008 | 69 | 64 | 0.0 | 5.0 | 0.00 | 0.00 | 0.00 | 88 | 1020.6 |
| 20260831135506 | 69 | 64 | 1.0 | 5.0 | 0.00 | 0.00 | 0.00 | 87 | 1020.6 |
| 20260831135006 | 68 | 15 | 0.0 | 4.0 | 0.00 | 0.00 | 0.00 | 88 | 1020.6 |
| 20260831134505 | 68 | 15 | 1.0 | 4.0 | 0.00 | 0.00 | 0.00 | 88 | 1020.7 |
| 20260831134005 | 68 | 16 | 0.0 | 3.0 | 0.00 | 0.00 | 0.00 | 90 | 1020.7 |
| 20260831133506 | 68 | 16 | 1.0 | 3.0 | 0.00 | 0.00 | 0.00 | 90 | 1020.8 |
| 20260831133007 | 67 | 16 | 1.0 | 3.0 | 0.00 | 0.00 | 0.00 | 91 | 1020.7 |
| 20260831132505 | 67 | 16 | 1.0 | 3.0 | 0.00 | 0.00 | 0.00 | 92 | 1020.6 |
| 20260831132005 | 67 | 16 | 0.0 | 0.0 | 0.00 | 0.00 | 0.00 | 93 | 1020.7 |
| 20260831131512 | 67 | 16 | 0.0 | 3.0 | 0.00 | 0.00 | 0.00 | 93 | 1020.8 |
| 20260831131007 | 66 | 16 | 1.0 | 3.0 | 0.00 | 0.00 | 0.00 | 93 | 1020.7 |
| 20260831130504 | 66 | 16 | 1.0 | 3.0 | 0.00 | 0.00 | 0.00 | 93 | 1020.8 |
| 20260831130004 | 65 | 15 | 0.0 | 0.0 | 0.00 | 0.00 | 0.00 | 93 | 1020.9 |
| 20260831125504 | 65 | 15 | 0.0 | 3.0 | 0.00 | 0.00 | 0.00 | 93 | 1020.9 |
| 20260831125005 | 65 | 15 | 1.0 | 3.0 | 0.00 | 0.00 | 0.00 | 93 | 1021.1 |
| 20260831124503 | 65 | 15 | 1.0 | 2.0 | 0.00 | 0.00 | 0.00 | 93 | 1021.2 |
| 20260831124004 | 65 | 15 | 0.0 | 0.0 | 0.00 | 0.00 | 0.00 | 93 | 1021.0 |
| 20260831123501 | 64 | 15 | 0.0 | 2.0 | 0.00 | 0.00 | 0.00 | 93 | 1020.8 |
| 20260831123001 | 64 | 15 | 0.0 | 3.0 | 0.00 | 0.00 | 0.00 | 93 | 1020.8 |
| 20260831122501 | 64 | 15 | 1.0 | 3.0 | 0.00 | 0.00 | 0.00 | 93 | 1020.8 |
| 20260831122001 | 64 | 16 | 0.0 | 3.0 | 0.00 | 0.00 | 0.00 | 93 | 1020.8 |
| 20260831121600 | 64 | 16 | 1.0 | 3.0 | 0.00 | 0.00 | 0.00 | 93 | 1020.8 |
| 20260831121100 | 64 | 13 | 0.0 | 2.0 | 0.00 | 0.00 | 0.00 | 93 | 1020.9 |
| 20260831121002 | 64 | 13 | 0.0 | 2.0 | 0.00 | 0.00 | 0.00 | 93 | 1020.8 |
| 20260831120600 | 63 | 13 | 0.0 | 2.0 | 0.00 | 0.00 | 0.00 | 93 | 1020.8 |
| 20260831120100 | 63 | 13 | 0.0 | 1.0 | 0.00 | 0.00 | 0.00 | 93 | 1020.8 |
| 20260831115557 | 63 | 13 | 0.0 | 0.0 | 0.00 | 0.00 | 0.00 | 93 | 1020.8 |
| 20260831115057 | 63 | 13 | 0.0 | 0.0 | 0.00 | 0.00 | 0.00 | 92 | 1020.6 |
| 20260831114559 | 63 | 13 | 0.0 | 0.0 | 0.00 | 0.00 | 0.00 | 92 | 1020.7 |
| 20260831114057 | 63 | 13 | 0.0 | 0.0 | 0.00 | 0.00 | 0.00 | 92 | 1020.6 |
| 20260831113557 | 63 | 13 | 0.0 | 0.0 | 0.00 | 0.00 | 0.00 | 92 | 1020.7 |
| 20260831113102 | 63 | 13 | 0.0 | 1.0 | 0.00 | 0.00 | 0.00 | 92 | 1020.7 |
| 20260831112557 | 63 | 13 | 0.0 | 3.0 | 0.00 | 0.00 | 0.00 | 92 | 1020.6 |
| 20260831112057 | 63 | 13 | 1.0 | 3.0 | 0.00 | 0.00 | 0.00 | 92 | 1020.6 |
| 20260831111559 | 62 | 13 | 0.0 | 0.0 | 0.00 | 0.00 | 0.00 | 92 | 1020.4 |
| 20260831111055 | 62 | 13 | 0.0 | 0.0 | 0.00 | 0.00 | 0.00 | 92 | 1020.4 |
| 20260831110557 | 62 | 13 | 0.0 | 2.0 | 0.00 | 0.00 | 0.00 | 92 | 1020.4 |
| 20260831110055 | 62 | 13 | 0.0 | 2.0 | 0.00 | 0.00 | 0.00 | 92 | 1020.2 |
| 20260831105553 | 62 | 13 | 0.0 | 1.0 | 0.00 | 0.00 | 0.00 | 91 | 1020.3 |
| 20260831105053 | 62 | 13 | 0.0 | 0.0 | 0.00 | 0.00 | 0.00 | 91 | 1020.2 |
| 20260831104552 | 62 | 13 | 0.0 | 0.0 | 0.00 | 0.00 | 0.00 | 91 | 1020.0 |
| 20260831104051 | 62 | 13 | 0.0 | 0.0 | 0.00 | 0.00 | 0.00 | 91 | 1020.0 |
| 20260831103551 | 62 | 13 | 0.0 | 2.0 | 0.00 | 0.00 | 0.00 | 91 | 1020.0 |
| 20260831103050 | 62 | 13 | 0.0 | 2.0 | 0.00 | 0.00 | 0.00 | 91 | 1020.0 |
| 20260831102550 | 63 | 13 | 0.0 | 0.0 | 0.00 | 0.00 | 0.00 | 91 | 1019.9 |
| 20260831102050 | 63 | 13 | 0.0 | 0.0 | 0.00 | 0.00 | 0.00 | 91 | 1019.9 |
| 20260831101550 | 63 | 13 | 0.0 | 0.0 | 0.00 | 0.00 | 0.00 | 91 | 1019.9 |
| 20260831101050 | 63 | 13 | 0.0 | 2.0 | 0.00 | 0.00 | 0.00 | 91 | 1019.9 |
| 20260831100548 | 63 | 13 | 0.0 | 2.0 | 0.00 | 0.00 | 0.00 | 91 | 1019.9 |
| 20260831100113 | 63 | 13 | 0.0 | 2.0 | 0.00 | 0.00 | 0.00 | 91 | 1019.9 |
| 20260831095547 | 63 | 13 | 0.0 | 2.0 | 0.00 | 0.00 | 0.00 | 91 | 1019.8 |
| 20260831095048 | 63 | 13 | 0.0 | 3.0 | 0.00 | 0.00 | 0.00 | 91 | 1019.7 |
| 20260831094547 | 63 | 13 | 1.0 | 3.0 | 0.00 | 0.00 | 0.00 | 91 | 1019.7 |
| 20260831094047 | 63 | 12 | 0.0 | 2.0 | 0.00 | 0.00 | 0.00 | 91 | 1019.6 |
| 20260831093547 | 63 | 12 | 0.0 | 0.0 | 0.00 | 0.00 | 0.00 | 91 | 1019.6 |
| 20260831093047 | 63 | 12 | 0.0 | 2.0 | 0.00 | 0.00 | 0.00 | 91 | 1019.6 |
| 20260831092549 | 63 | 12 | 0.0 | 2.0 | 0.00 | 0.00 | 0.00 | 91 | 1019.7 |
| 20260831092045 | 63 | 12 | 0.0 | 3.0 | 0.00 | 0.00 | 0.00 | 91 | 1019.7 |
| 20260831091551 | 63 | 12 | 0.0 | 3.0 | 0.00 | 0.00 | 0.00 | 91 | 1019.7 |
| 20260831091045 | 63 | 12 | 1.0 | 3.0 | 0.00 | 0.00 | 0.00 | 91 | 1019.7 |
| 20260831090545 | 63 | 12 | 1.0 | 3.0 | 0.00 | 0.00 | 0.00 | 91 | 1019.7 |
| 20260831090045 | 63 | 12 | 0.0 | 3.0 | 0.00 | 0.00 | 0.00 | 91 | 1019.6 |
| 20260831085544 | 63 | 12 | 0.0 | 0.0 | 0.00 | 0.00 | 0.00 | 91 | 1019.5 |
| 20260831085043 | 63 | 12 | 0.0 | 0.0 | 0.00 | 0.00 | 0.00 | 91 | 1019.6 |
| 20260831084608 | 64 | 12 | 0.0 | 0.0 | 0.00 | 0.00 | 0.00 | 91 | 1019.6 |
| 20260831084043 | 64 | 12 | 0.0 | 2.0 | 0.00 | 0.00 | 0.00 | 91 | 1019.6 |
| 20260831083542 | 64 | 12 | 0.0 | 2.0 | 0.00 | 0.00 | 0.00 | 91 | 1019.5 |
| 20260831083043 | 64 | 12 | 1.0 | 2.0 | 0.00 | 0.00 | 0.00 | 91 | 1019.4 |
| 20260831082541 | 64 | 12 | 0.0 | 4.0 | 0.00 | 0.00 | 0.00 | 91 | 1019.5 |
| 20260831082041 | 63 | 34 | 1.0 | 3.0 | 0.00 | 0.00 | 0.00 | 90 | 1019.4 |
| 20260831081541 | 63 | 60 | 0.0 | 2.0 | 0.00 | 0.00 | 0.00 | 90 | 1019.3 |
| 20260831081041 | 63 | 60 | 1.0 | 3.0 | 0.00 | 0.00 | 0.00 | 90 | 1019.4 |
| 20260831080542 | 63 | 60 | 1.0 | 3.0 | 0.00 | 0.00 | 0.00 | 90 | 1019.5 |
| 20260831080039 | 63 | 82 | 0.0 | 2.0 | 0.00 | 0.00 | 0.00 | 89 | 1019.5 |
| 20260831075538 | 63 | 82 | 0.0 | 2.0 | 0.00 | 0.00 | 0.00 | 89 | 1019.4 |
| 20260831075041 | 63 | 82 | 1.0 | 2.0 | 0.00 | 0.00 | 0.00 | 89 | 1019.4 |
| 20260831074549 | 63 | 82 | 0.0 | 1.0 | 0.00 | 0.00 | 0.00 | 89 | 1019.4 |
| 20260831074037 | 63 | 83 | 0.0 | 2.0 | 0.00 | 0.00 | 0.00 | 88 | 1019.4 |
| 20260831073537 | 63 | 83 | 0.0 | 2.0 | 0.00 | 0.00 | 0.00 | 88 | 1019.3 |
| 20260831073039 | 64 | 83 | 0.0 | 0.0 | 0.00 | 0.00 | 0.00 | 88 | 1019.2 |
| 20260831072538 | 64 | 83 | 0.0 | 0.0 | 0.00 | 0.00 | 0.00 | 88 | 1019.2 |
| 20260831072036 | 64 | 83 | 0.0 | 0.0 | 0.00 | 0.00 | 0.00 | 88 | 1019.3 |
| 20260831072004 | 64 | 83 | 0.0 | 0.0 | 0.00 | 0.00 | 0.00 | 88 | 1019.3 |
| 20260831071534 | 64 | 83 | 0.0 | 0.0 | 0.00 | 0.00 | 0.00 | 88 | 1019.3 |
| 20260831071034 | 64 | 83 | 0.0 | 0.0 | 0.00 | 0.00 | 0.00 | 88 | 1019.3 |
| 20260831070534 | 64 | 83 | 0.0 | 0.0 | 0.00 | 0.00 | 0.00 | 88 | 1019.3 |
| 20260831070033 | 64 | 83 | 0.0 | 0.0 | 0.00 | 0.00 | 0.00 | 88 | 1019.4 |
| 20260831065534 | 64 | 83 | 0.0 | 0.0 | 0.00 | 0.00 | 0.00 | 88 | 1019.2 |
| 20260831065033 | 65 | 83 | 0.0 | 0.0 | 0.00 | 0.00 | 0.00 | 88 | 1019.1 |
| 20260831064530 | 65 | 83 | 0.0 | 0.0 | 0.00 | 0.00 | 0.00 | 88 | 1019.0 |